Year,Month,Day,Hour,Minute,Value (Times are PST for temperature in C)
2013,08,22,00,00,21.60
2013,08,22,00,01,21.50
2013,08,22,00,02,21.30
2013,08,22,00,03,21.20
2013,08,22,00,04,21.00
2013,08,22,00,05,20.90
2013,08,22,00,06,20.80
2013,08,22,00,07,20.60
2013,08,22,00,08,20.50
2013,08,22,00,09,20.40
2013,08,22,00,10,20.30
2013,08,22,00,11,20.30
2013,08,22,00,12,20.20
2013,08,22,00,13,20.10
2013,08,22,00,16,19.90
2013,08,22,00,17,19.90
2013,08,22,00,18,19.80
2013,08,22,00,19,19.80
2013,08,22,00,20,19.80
2013,08,22,00,21,19.70
2013,08,22,00,22,19.70
2013,08,22,00,23,19.70
2013,08,22,00,24,19.70
2013,08,22,00,25,19.70
2013,08,22,00,26,19.70
2013,08,22,00,27,19.60
2013,08,22,00,28,19.70
2013,08,22,00,29,19.70
2013,08,22,00,30,19.70
2013,08,22,00,31,19.70
2013,08,22,00,32,19.70
2013,08,22,00,33,19.70
2013,08,22,00,34,19.70
2013,08,22,00,35,19.70
2013,08,22,00,36,19.70
2013,08,22,00,37,19.70
2013,08,22,00,38,19.80
2013,08,22,00,39,19.80
2013,08,22,00,40,19.70
2013,08,22,00,41,19.70
2013,08,22,00,42,19.60
2013,08,22,00,43,19.60
2013,08,22,00,44,19.50
2013,08,22,00,45,19.50
2013,08,22,00,46,19.40
2013,08,22,00,47,19.40
2013,08,22,00,48,19.30
2013,08,22,00,49,19.30
2013,08,22,00,50,19.30
2013,08,22,00,51,19.30
2013,08,22,00,52,19.20
2013,08,22,00,53,19.20
2013,08,22,00,54,19.20
2013,08,22,00,55,19.20
2013,08,22,00,56,19.20
2013,08,22,00,57,19.20
2013,08,22,00,58,19.20
2013,08,22,00,59,19.30
2013,08,22,01,00,19.50
2013,08,22,01,01,19.60
2013,08,22,01,02,19.70
2013,08,22,01,03,19.70
2013,08,22,01,04,19.70
2013,08,22,01,05,19.70
2013,08,22,01,06,19.70
2013,08,22,01,07,19.70
2013,08,22,01,08,19.70
2013,08,22,01,09,19.80
2013,08,22,01,10,19.80
2013,08,22,01,11,19.90
2013,08,22,01,12,19.90
2013,08,22,01,13,20.00
2013,08,22,01,14,20.00
2013,08,22,01,15,20.10
2013,08,22,01,16,20.00
2013,08,22,01,17,20.00
2013,08,22,01,18,20.00
2013,08,22,01,19,20.00
2013,08,22,01,20,20.00
2013,08,22,01,21,19.90
2013,08,22,01,22,19.90
2013,08,22,01,23,19.90
2013,08,22,01,24,19.80
2013,08,22,01,25,19.80
2013,08,22,01,26,19.80
2013,08,22,01,27,19.70
2013,08,22,01,28,19.70
2013,08,22,01,29,19.70
2013,08,22,01,30,19.70
2013,08,22,01,31,19.70
2013,08,22,01,32,19.60
2013,08,22,01,33,19.60
2013,08,22,01,34,19.50
2013,08,22,01,35,19.50
2013,08,22,01,36,19.40
2013,08,22,01,37,19.40
2013,08,22,01,38,19.40
2013,08,22,01,39,19.50
2013,08,22,01,40,19.40
2013,08,22,01,41,19.40
2013,08,22,01,42,19.40
2013,08,22,01,43,19.40
2013,08,22,01,44,19.30
2013,08,22,01,45,19.30
2013,08,22,01,46,19.30
2013,08,22,01,47,19.30
2013,08,22,01,48,19.30
2013,08,22,01,49,19.30
2013,08,22,01,50,19.30
2013,08,22,01,51,19.30
2013,08,22,01,52,19.40
2013,08,22,01,53,19.40
2013,08,22,01,54,19.50
2013,08,22,01,55,19.50
2013,08,22,01,56,19.50
2013,08,22,01,57,19.50
2013,08,22,01,58,19.60
2013,08,22,01,59,19.60
2013,08,22,02,00,19.60
2013,08,22,02,01,19.60
2013,08,22,02,02,19.50
2013,08,22,02,03,19.50
2013,08,22,02,04,19.40
2013,08,22,02,05,19.40
2013,08,22,02,06,19.40
2013,08,22,02,07,19.30
2013,08,22,02,08,19.30
2013,08,22,02,09,19.20
2013,08,22,02,10,19.20
2013,08,22,02,11,19.10
2013,08,22,02,12,19.10
2013,08,22,02,13,19.00
2013,08,22,02,14,19.00
2013,08,22,02,15,19.00
2013,08,22,02,16,18.90
2013,08,22,02,17,18.90
2013,08,22,02,18,18.90
2013,08,22,02,19,18.80
2013,08,22,02,20,18.80
2013,08,22,02,21,18.70
2013,08,22,02,22,18.70
2013,08,22,02,23,18.70
2013,08,22,02,24,18.70
2013,08,22,02,25,18.60
2013,08,22,02,26,18.60
2013,08,22,02,27,18.60
2013,08,22,02,28,18.60
2013,08,22,02,29,18.50
2013,08,22,02,30,18.50
2013,08,22,02,31,18.50
2013,08,22,02,32,18.40
2013,08,22,02,33,18.40
2013,08,22,02,34,18.40
2013,08,22,02,35,18.40
2013,08,22,02,36,18.40
2013,08,22,02,37,18.40
2013,08,22,02,38,18.40
2013,08,22,02,39,18.40
2013,08,22,02,40,18.40
2013,08,22,02,41,18.40
2013,08,22,02,42,18.40
2013,08,22,02,43,18.40
2013,08,22,02,44,18.40
2013,08,22,02,45,18.40
2013,08,22,02,46,18.40
2013,08,22,02,47,18.40
2013,08,22,02,48,18.30
2013,08,22,02,49,18.30
2013,08,22,02,50,18.30
2013,08,22,02,51,18.20
2013,08,22,02,52,18.10
2013,08,22,02,53,18.10
2013,08,22,02,54,18.10
2013,08,22,02,55,18.10
2013,08,22,02,56,18.10
2013,08,22,02,57,18.00
2013,08,22,02,58,18.00
2013,08,22,02,59,17.90
2013,08,22,03,00,17.90
2013,08,22,03,01,18.00
2013,08,22,03,02,18.00
2013,08,22,03,03,18.10
2013,08,22,03,04,18.20
2013,08,22,03,05,18.20
2013,08,22,03,06,18.30
2013,08,22,03,07,18.30
2013,08,22,03,08,18.40
2013,08,22,03,09,18.40
2013,08,22,03,10,18.40
2013,08,22,03,11,18.50
2013,08,22,03,12,18.60
2013,08,22,03,13,18.70
2013,08,22,03,14,18.70
2013,08,22,03,15,18.70
2013,08,22,03,16,18.80
2013,08,22,03,17,18.80
2013,08,22,03,18,18.80
2013,08,22,03,19,18.80
2013,08,22,03,20,18.80
2013,08,22,03,21,18.80
2013,08,22,03,22,18.90
2013,08,22,03,23,19.00
2013,08,22,03,24,19.00
2013,08,22,03,25,19.10
2013,08,22,03,26,19.10
2013,08,22,03,27,19.10
2013,08,22,03,28,19.20
2013,08,22,03,29,19.20
2013,08,22,03,30,19.20
2013,08,22,03,31,19.20
2013,08,22,03,32,19.20
2013,08,22,03,33,19.20
2013,08,22,03,34,19.20
2013,08,22,03,35,19.20
2013,08,22,03,36,19.10
2013,08,22,03,37,19.10
2013,08,22,03,38,19.00
2013,08,22,03,39,19.00
2013,08,22,03,40,18.90
2013,08,22,03,41,18.90
2013,08,22,03,42,18.80
2013,08,22,03,43,18.80
2013,08,22,03,44,18.70
2013,08,22,03,45,18.70
2013,08,22,03,46,18.60
2013,08,22,03,47,18.60
2013,08,22,03,48,18.60
2013,08,22,03,49,18.50
2013,08,22,03,50,18.50
2013,08,22,03,51,18.40
2013,08,22,03,52,18.40
2013,08,22,03,53,18.40
2013,08,22,03,54,18.30
2013,08,22,03,55,18.30
2013,08,22,03,56,18.30
2013,08,22,03,57,18.30
2013,08,22,03,58,18.40
2013,08,22,03,59,18.40
2013,08,22,04,00,18.40
2013,08,22,04,01,18.40
2013,08,22,04,02,18.40
2013,08,22,04,03,18.40
2013,08,22,04,04,18.40
2013,08,22,04,05,18.40
2013,08,22,04,06,18.30
2013,08,22,04,07,18.30
2013,08,22,04,08,18.30
2013,08,22,04,09,18.30
2013,08,22,04,10,18.30
2013,08,22,04,11,18.30
2013,08,22,04,12,18.30
2013,08,22,04,13,18.30
2013,08,22,04,14,18.30
2013,08,22,04,15,18.30
2013,08,22,04,16,18.30
2013,08,22,04,17,18.30
2013,08,22,04,18,18.30
2013,08,22,04,19,18.30
2013,08,22,04,20,18.30
2013,08,22,04,21,18.30
2013,08,22,04,22,18.30
2013,08,22,04,23,18.30
2013,08,22,04,24,18.30
2013,08,22,04,25,18.30
2013,08,22,04,26,18.30
2013,08,22,04,27,18.20
2013,08,22,04,28,18.20
2013,08,22,04,29,18.20
2013,08,22,04,30,18.20
2013,08,22,04,31,18.20
2013,08,22,04,32,18.10
2013,08,22,04,33,18.10
2013,08,22,04,34,18.10
2013,08,22,04,35,18.00
2013,08,22,04,36,18.00
2013,08,22,04,37,18.00
2013,08,22,04,38,18.00
2013,08,22,04,39,18.00
2013,08,22,04,40,18.00
2013,08,22,04,41,18.00
2013,08,22,04,42,18.10
2013,08,22,04,43,18.10
2013,08,22,04,44,18.10
2013,08,22,04,45,18.10
2013,08,22,04,46,18.10
2013,08,22,04,47,18.10
2013,08,22,04,48,18.10
2013,08,22,04,49,18.10
2013,08,22,04,50,18.10
2013,08,22,04,51,18.10
2013,08,22,04,52,18.10
2013,08,22,04,53,18.10
2013,08,22,04,54,18.10
2013,08,22,04,55,18.10
2013,08,22,04,56,18.00
2013,08,22,04,57,18.00
2013,08,22,04,58,18.00
2013,08,22,04,59,18.00
2013,08,22,05,00,17.90
2013,08,22,05,01,17.90
2013,08,22,05,02,17.90
2013,08,22,05,03,17.90
2013,08,22,05,04,17.80
2013,08,22,05,05,17.80
2013,08,22,05,06,17.80
2013,08,22,05,07,17.80
2013,08,22,05,08,17.80
2013,08,22,05,09,17.80
2013,08,22,05,10,17.80
2013,08,22,05,11,17.80
2013,08,22,05,12,17.80
2013,08,22,05,13,17.80
2013,08,22,05,14,17.80
2013,08,22,05,15,17.80
2013,08,22,05,16,17.80
2013,08,22,05,17,17.80
2013,08,22,05,18,17.80
2013,08,22,05,19,17.70
2013,08,22,05,20,17.70
2013,08,22,05,21,17.80
2013,08,22,05,22,17.80
2013,08,22,05,23,17.80
2013,08,22,05,24,17.80
2013,08,22,05,25,17.90
2013,08,22,05,26,17.90
2013,08,22,05,27,17.90
2013,08,22,05,28,17.90
2013,08,22,05,29,17.90
2013,08,22,05,30,17.90
2013,08,22,05,31,17.90
2013,08,22,05,32,17.90
2013,08,22,05,33,17.90
2013,08,22,05,34,17.80
2013,08,22,05,35,17.70
2013,08,22,05,36,17.70
2013,08,22,05,37,17.60
2013,08,22,05,38,17.60
2013,08,22,05,39,17.60
2013,08,22,05,40,17.60
2013,08,22,05,41,17.60
2013,08,22,05,42,17.60
2013,08,22,05,43,17.60
2013,08,22,05,44,17.60
2013,08,22,05,45,17.60
2013,08,22,05,46,17.70
2013,08,22,05,47,17.70
2013,08,22,05,48,17.70
2013,08,22,05,49,17.70
2013,08,22,05,50,17.70
2013,08,22,05,51,17.70
2013,08,22,05,52,17.70
2013,08,22,05,53,17.70
2013,08,22,05,54,17.60
2013,08,22,05,55,17.60
2013,08,22,05,56,17.60
2013,08,22,05,57,17.70
2013,08,22,05,58,17.70
2013,08,22,05,59,17.70
2013,08,22,06,00,17.70
2013,08,22,06,01,17.70
2013,08,22,06,02,17.70
2013,08,22,06,03,17.70
2013,08,22,06,04,17.80
2013,08,22,06,05,17.80
2013,08,22,06,06,17.80
2013,08,22,06,07,17.80
2013,08,22,06,08,17.80
2013,08,22,06,09,17.80
2013,08,22,06,10,17.80
2013,08,22,06,11,17.80
2013,08,22,06,12,17.80
2013,08,22,06,13,17.80
2013,08,22,06,14,17.80
2013,08,22,06,15,17.80
2013,08,22,06,16,17.80
2013,08,22,06,17,17.80
2013,08,22,06,18,17.80
2013,08,22,06,19,17.80
2013,08,22,06,20,17.80
2013,08,22,06,21,17.80
2013,08,22,06,22,17.70
2013,08,22,06,23,17.70
2013,08,22,06,24,17.70
2013,08,22,06,25,17.70
2013,08,22,06,26,17.60
2013,08,22,06,27,17.60
2013,08,22,06,28,17.50
2013,08,22,06,29,17.50
2013,08,22,06,30,17.50
2013,08,22,06,31,17.40
2013,08,22,06,32,17.40
2013,08,22,06,33,17.40
2013,08,22,06,34,17.40
2013,08,22,06,35,17.40
2013,08,22,06,36,17.40
2013,08,22,06,37,17.40
2013,08,22,06,38,17.50
2013,08,22,06,39,17.50
2013,08,22,06,40,17.50
2013,08,22,06,41,17.50
2013,08,22,06,42,17.50
2013,08,22,06,43,17.50
2013,08,22,06,44,17.40
2013,08,22,06,45,17.40
2013,08,22,06,46,17.50
2013,08,22,06,47,17.50
2013,08,22,06,48,17.50
2013,08,22,06,49,17.50
2013,08,22,06,50,17.50
2013,08,22,06,51,17.40
2013,08,22,06,52,17.50
2013,08,22,06,53,17.50
2013,08,22,06,54,17.50
2013,08,22,06,55,17.50
2013,08,22,06,56,17.60
2013,08,22,06,57,17.60
2013,08,22,06,58,17.60
2013,08,22,06,59,17.70
2013,08,22,07,00,17.70
2013,08,22,07,01,17.60
2013,08,22,07,02,17.60
2013,08,22,07,03,17.60
2013,08,22,07,04,17.60
2013,08,22,07,05,17.60
2013,08,22,07,06,17.50
2013,08,22,07,07,17.50
2013,08,22,07,08,17.50
2013,08,22,07,09,17.50
2013,08,22,07,10,17.60
2013,08,22,07,11,17.60
2013,08,22,07,12,17.60
2013,08,22,07,13,17.60
2013,08,22,07,14,17.60
2013,08,22,07,15,17.60
2013,08,22,07,16,17.70
2013,08,22,07,17,17.70
2013,08,22,07,18,17.70
2013,08,22,07,19,17.70
2013,08,22,07,20,17.70
2013,08,22,07,21,17.80
2013,08,22,07,22,17.80
2013,08,22,07,23,17.80
2013,08,22,07,24,17.90
2013,08,22,07,25,17.90
2013,08,22,07,26,17.90
2013,08,22,07,27,18.00
2013,08,22,07,28,18.00
2013,08,22,07,29,18.10
2013,08,22,07,30,18.10
2013,08,22,07,31,18.10
2013,08,22,07,32,18.10
2013,08,22,07,33,18.10
2013,08,22,07,34,18.10
2013,08,22,07,35,18.20
2013,08,22,07,36,18.20
2013,08,22,07,37,18.20
2013,08,22,07,38,18.20
2013,08,22,07,39,18.20
2013,08,22,07,40,18.30
2013,08,22,07,41,18.30
2013,08,22,07,42,18.40
2013,08,22,07,43,18.60
2013,08,22,07,44,18.70
2013,08,22,07,45,18.80
2013,08,22,07,46,18.90
2013,08,22,07,47,19.00
2013,08,22,07,48,19.10
2013,08,22,07,49,19.20
2013,08,22,07,50,19.40
2013,08,22,07,51,19.50
2013,08,22,07,52,19.60
2013,08,22,07,53,19.80
2013,08,22,07,54,19.90
2013,08,22,07,55,20.00
2013,08,22,07,56,20.00
2013,08,22,07,57,20.00
2013,08,22,07,58,20.10
2013,08,22,07,59,20.10
2013,08,22,08,00,20.20
2013,08,22,08,01,20.20
2013,08,22,08,02,20.20
2013,08,22,08,03,20.10
2013,08,22,08,04,20.10
2013,08,22,08,05,20.00
2013,08,22,08,06,20.00
2013,08,22,08,07,20.00
2013,08,22,08,08,20.10
2013,08,22,08,09,20.10
2013,08,22,08,10,20.20
2013,08,22,08,11,20.30
2013,08,22,08,12,20.40
2013,08,22,08,13,20.40
2013,08,22,08,14,20.40
2013,08,22,08,15,20.50
2013,08,22,08,16,20.50
2013,08,22,08,17,20.50
2013,08,22,08,18,20.40
2013,08,22,08,19,20.40
2013,08,22,08,20,20.40
2013,08,22,08,21,20.30
2013,08,22,08,22,20.30
2013,08,22,08,23,20.30
2013,08,22,08,24,20.30
2013,08,22,08,25,20.30
2013,08,22,08,26,20.30
2013,08,22,08,27,20.30
2013,08,22,08,28,20.40
2013,08,22,08,29,20.40
2013,08,22,08,30,20.40
2013,08,22,08,31,20.50
2013,08,22,08,32,20.60
2013,08,22,08,33,20.60
2013,08,22,08,34,20.60
2013,08,22,08,35,20.60
2013,08,22,08,36,20.50
2013,08,22,08,37,20.50
2013,08,22,08,38,20.50
2013,08,22,08,39,20.40
2013,08,22,08,40,20.30
2013,08,22,08,41,20.30
2013,08,22,08,42,20.30
2013,08,22,08,43,20.30
2013,08,22,08,44,20.20
2013,08,22,08,45,20.20
2013,08,22,08,46,20.20
2013,08,22,08,47,20.30
2013,08,22,08,48,20.30
2013,08,22,08,49,20.50
2013,08,22,08,50,20.60
2013,08,22,08,51,20.70
2013,08,22,08,52,20.80
2013,08,22,08,53,20.70
2013,08,22,08,54,20.70
2013,08,22,08,55,20.70
2013,08,22,08,56,20.70
2013,08,22,08,57,20.80
2013,08,22,08,58,20.80
2013,08,22,08,59,20.80
2013,08,22,09,00,20.80
2013,08,22,09,01,20.90
2013,08,22,09,02,20.90
2013,08,22,09,03,21.00
2013,08,22,09,04,21.10
2013,08,22,09,05,21.30
2013,08,22,09,06,21.50
2013,08,22,09,07,21.60
2013,08,22,09,08,21.50
2013,08,22,09,09,21.50
2013,08,22,09,10,21.50
2013,08,22,09,11,21.50
2013,08,22,09,12,21.50
2013,08,22,09,13,21.50
2013,08,22,09,14,21.60
2013,08,22,09,15,21.70
2013,08,22,09,16,21.70
2013,08,22,09,17,21.80
2013,08,22,09,18,21.80
2013,08,22,09,19,21.90
2013,08,22,09,20,21.90
2013,08,22,09,21,21.90
2013,08,22,09,22,22.00
2013,08,22,09,23,22.10
2013,08,22,09,24,22.10
2013,08,22,09,25,22.20
2013,08,22,09,26,22.20
2013,08,22,09,27,22.10
2013,08,22,09,28,22.10
2013,08,22,09,29,22.00
2013,08,22,09,30,21.90
2013,08,22,09,31,21.90
2013,08,22,09,32,21.90
2013,08,22,09,33,21.90
2013,08,22,09,34,21.80
2013,08,22,09,35,21.80
2013,08,22,09,36,21.70
2013,08,22,09,37,21.70
2013,08,22,09,38,21.70
2013,08,22,09,39,21.70
2013,08,22,09,40,21.80
2013,08,22,09,41,21.90
2013,08,22,09,42,22.00
2013,08,22,09,43,22.10
2013,08,22,09,44,22.10
2013,08,22,09,45,22.10
2013,08,22,09,46,22.10
2013,08,22,09,47,22.10
2013,08,22,09,48,22.00
2013,08,22,09,49,22.00
2013,08,22,09,50,21.90
2013,08,22,09,51,21.90
2013,08,22,09,52,21.80
2013,08,22,09,53,21.70
2013,08,22,09,54,21.80
2013,08,22,09,55,21.80
2013,08,22,09,56,21.90
2013,08,22,09,57,22.00
2013,08,22,09,58,22.10
2013,08,22,09,59,22.30
2013,08,22,10,00,22.50
2013,08,22,10,01,22.70
2013,08,22,10,02,22.80
2013,08,22,10,03,22.80
2013,08,22,10,04,22.80
2013,08,22,10,05,22.90
2013,08,22,10,06,22.90
2013,08,22,10,07,23.00
2013,08,22,10,08,23.00
2013,08,22,10,09,23.10
2013,08,22,10,10,23.10
2013,08,22,10,11,23.10
2013,08,22,10,12,23.10
2013,08,22,10,13,23.20
2013,08,22,10,14,23.20
2013,08,22,10,15,23.30
2013,08,22,10,16,23.40
2013,08,22,10,17,23.40
2013,08,22,10,18,23.50
2013,08,22,10,19,23.50
2013,08,22,10,20,23.50
2013,08,22,10,21,23.40
2013,08,22,10,22,23.40
2013,08,22,10,23,23.40
2013,08,22,10,24,23.30
2013,08,22,10,25,23.30
2013,08,22,10,26,23.30
2013,08,22,10,27,23.40
2013,08,22,10,28,23.40
2013,08,22,10,29,23.40
2013,08,22,10,30,23.50
2013,08,22,10,31,23.60
2013,08,22,10,32,23.60
2013,08,22,10,33,23.70
2013,08,22,10,34,23.70
2013,08,22,10,35,23.80
2013,08,22,10,36,23.80
2013,08,22,10,37,23.90
2013,08,22,10,38,24.00
2013,08,22,10,39,24.10
2013,08,22,10,40,24.20
2013,08,22,10,41,24.20
2013,08,22,10,42,24.30
2013,08,22,10,43,24.30
2013,08,22,10,44,24.40
2013,08,22,10,45,24.50
2013,08,22,10,46,24.50
2013,08,22,10,47,24.60
2013,08,22,10,48,24.60
2013,08,22,10,49,24.60
2013,08,22,10,50,24.70
2013,08,22,10,51,24.70
2013,08,22,10,52,24.60
2013,08,22,10,53,24.50
2013,08,22,10,54,24.40
2013,08,22,10,55,24.40
2013,08,22,10,56,24.40
2013,08,22,10,57,24.30
2013,08,22,10,58,24.30
2013,08,22,10,59,24.40
2013,08,22,11,00,24.30
2013,08,22,11,01,24.10
2013,08,22,11,02,23.80
2013,08,22,11,03,23.70
2013,08,22,11,04,23.70
2013,08,22,11,05,23.70
2013,08,22,11,06,23.70
2013,08,22,11,07,23.60
2013,08,22,11,08,23.50
2013,08,22,11,09,23.40
2013,08,22,11,10,23.50
2013,08,22,11,11,23.50
2013,08,22,11,12,23.50
2013,08,22,11,13,23.70
2013,08,22,11,14,23.80
2013,08,22,11,15,24.00
2013,08,22,11,16,24.00
2013,08,22,11,17,24.10
2013,08,22,11,18,24.20
2013,08,22,11,19,24.30
2013,08,22,11,20,24.40
2013,08,22,11,21,24.50
2013,08,22,11,22,24.60
2013,08,22,11,23,24.70
2013,08,22,11,24,24.70
2013,08,22,11,25,24.70
2013,08,22,11,26,24.60
2013,08,22,11,27,24.60
2013,08,22,11,28,24.60
2013,08,22,11,29,24.60
2013,08,22,11,30,24.50
2013,08,22,11,31,24.50
2013,08,22,11,32,24.50
2013,08,22,11,33,24.40
2013,08,22,11,34,24.20
2013,08,22,11,35,24.00
2013,08,22,11,36,23.80
2013,08,22,11,37,23.70
2013,08,22,11,38,23.50
2013,08,22,11,39,23.40
2013,08,22,11,40,23.30
2013,08,22,11,41,23.20
2013,08,22,11,42,23.20
2013,08,22,11,43,23.20
2013,08,22,11,44,23.20
2013,08,22,11,45,23.30
2013,08,22,11,46,23.40
2013,08,22,11,47,23.40
2013,08,22,11,48,23.40
2013,08,22,11,49,23.50
2013,08,22,11,50,23.40
2013,08,22,11,51,23.40
2013,08,22,11,52,23.40
2013,08,22,11,53,23.50
2013,08,22,11,54,23.60
2013,08,22,11,55,23.60
2013,08,22,11,56,23.60
2013,08,22,11,57,23.50
2013,08,22,11,58,23.40
2013,08,22,11,59,23.40
2013,08,22,12,00,23.40
2013,08,22,12,01,23.50
2013,08,22,12,02,23.70
2013,08,22,12,03,23.70
2013,08,22,12,04,23.60
2013,08,22,12,05,23.50
2013,08,22,12,06,23.40
2013,08,22,12,07,23.40
2013,08,22,12,08,23.40
2013,08,22,12,09,23.50
2013,08,22,12,10,23.60
2013,08,22,12,11,23.70
2013,08,22,12,12,23.70
2013,08,22,12,13,23.70
2013,08,22,12,14,23.70
2013,08,22,12,15,23.80
2013,08,22,12,16,23.80
2013,08,22,12,17,23.80
2013,08,22,12,18,23.80
2013,08,22,12,19,23.70
2013,08,22,12,20,23.70
2013,08,22,12,21,23.70
2013,08,22,12,22,23.60
2013,08,22,12,23,23.60
2013,08,22,12,24,23.60
2013,08,22,12,25,23.70
2013,08,22,12,26,23.80
2013,08,22,12,27,23.90
2013,08,22,12,28,24.00
2013,08,22,12,29,24.10
2013,08,22,12,30,24.10
2013,08,22,12,31,24.10
2013,08,22,12,32,24.10
2013,08,22,12,33,24.10
2013,08,22,12,34,24.10
2013,08,22,12,35,24.10
2013,08,22,12,36,24.10
2013,08,22,12,37,24.20
2013,08,22,12,38,24.20
2013,08,22,12,39,24.20
2013,08,22,12,40,24.10
2013,08,22,12,41,24.20
2013,08,22,12,42,24.40
2013,08,22,12,43,24.60
2013,08,22,12,44,24.70
2013,08,22,12,45,24.70
2013,08,22,12,46,24.60
2013,08,22,12,47,24.40
2013,08,22,12,48,24.30
2013,08,22,12,49,24.20
2013,08,22,12,50,24.10
2013,08,22,12,51,24.00
2013,08,22,12,52,24.00
2013,08,22,12,53,24.00
2013,08,22,12,54,24.10
2013,08,22,12,55,24.20
2013,08,22,12,56,24.30
2013,08,22,12,57,24.40
2013,08,22,12,58,24.30
2013,08,22,12,59,24.30
2013,08,22,13,00,24.20
2013,08,22,13,01,24.20
2013,08,22,13,02,24.10
2013,08,22,13,03,24.00
2013,08,22,13,04,23.90
2013,08,22,13,05,23.90
2013,08,22,13,06,23.90
2013,08,22,13,07,23.90
2013,08,22,13,08,23.80
2013,08,22,13,09,23.70
2013,08,22,13,10,23.70
2013,08,22,13,11,23.70
2013,08,22,13,12,23.80
2013,08,22,13,13,23.90
2013,08,22,13,14,24.00
2013,08,22,13,15,24.10
2013,08,22,13,16,24.10
2013,08,22,13,17,24.10
2013,08,22,13,18,24.10
2013,08,22,13,19,24.10
2013,08,22,13,20,24.20
2013,08,22,13,21,24.20
2013,08,22,13,22,24.20
2013,08,22,13,23,24.20
2013,08,22,13,24,24.20
2013,08,22,13,25,24.30
2013,08,22,13,26,24.40
2013,08,22,13,27,24.50
2013,08,22,13,28,24.60
2013,08,22,13,29,24.70
2013,08,22,13,30,24.70
2013,08,22,13,31,24.70
2013,08,22,13,32,24.80
2013,08,22,13,33,24.80
2013,08,22,13,34,24.90
2013,08,22,13,35,24.90
2013,08,22,13,36,24.90
2013,08,22,13,37,25.00
2013,08,22,13,38,25.00
2013,08,22,13,39,25.20
2013,08,22,13,40,25.40
2013,08,22,13,41,25.40
2013,08,22,13,42,25.50
2013,08,22,13,43,25.50
2013,08,22,13,44,25.40
2013,08,22,13,45,25.30
2013,08,22,13,46,25.40
2013,08,22,13,47,25.50
2013,08,22,13,48,25.50
2013,08,22,13,49,25.50
2013,08,22,13,50,25.60
2013,08,22,13,51,25.60
2013,08,22,13,52,25.60
2013,08,22,13,53,25.60
2013,08,22,13,54,25.70
2013,08,22,13,55,25.70
2013,08,22,13,56,25.70
2013,08,22,13,57,25.60
2013,08,22,13,58,25.70
2013,08,22,13,59,25.70
2013,08,22,14,00,25.80
2013,08,22,14,01,25.90
2013,08,22,14,02,25.90
2013,08,22,14,03,25.90
2013,08,22,14,04,25.90
2013,08,22,14,05,25.90
2013,08,22,14,06,25.80
2013,08,22,14,07,25.70
2013,08,22,14,08,25.70
2013,08,22,14,09,25.60
2013,08,22,14,10,25.60
2013,08,22,14,11,25.70
2013,08,22,14,12,25.80
2013,08,22,14,13,25.90
2013,08,22,14,14,25.90
2013,08,22,14,15,25.90
2013,08,22,14,16,25.90
2013,08,22,14,17,25.70
2013,08,22,14,18,25.60
2013,08,22,14,19,25.60
2013,08,22,14,20,25.60
2013,08,22,14,21,25.60
2013,08,22,14,22,25.70
2013,08,22,14,23,25.60
2013,08,22,14,24,25.60
2013,08,22,14,25,25.50
2013,08,22,14,26,25.40
2013,08,22,14,27,25.30
2013,08,22,14,28,25.20
2013,08,22,14,29,25.20
2013,08,22,14,30,25.20
2013,08,22,14,31,25.30
2013,08,22,14,32,25.30
2013,08,22,14,33,25.30
2013,08,22,14,34,25.30
2013,08,22,14,35,25.40
2013,08,22,14,36,25.40
2013,08,22,14,37,25.40
2013,08,22,14,38,25.40
2013,08,22,14,39,25.30
2013,08,22,14,40,25.30
2013,08,22,14,41,25.20
2013,08,22,14,42,25.20
2013,08,22,14,43,25.20
2013,08,22,14,44,25.20
2013,08,22,14,45,25.30
2013,08,22,14,46,25.30
2013,08,22,14,47,25.30
2013,08,22,14,48,25.30
2013,08,22,14,49,25.30
2013,08,22,14,50,25.30
2013,08,22,14,51,25.30
2013,08,22,14,52,25.30
2013,08,22,14,53,25.30
2013,08,22,14,54,25.20
2013,08,22,14,55,25.00
2013,08,22,14,56,24.90
2013,08,22,14,57,24.90
2013,08,22,14,58,24.90
2013,08,22,14,59,24.90
2013,08,22,15,00,25.00
2013,08,22,15,01,25.00
2013,08,22,15,02,24.90
2013,08,22,15,03,24.90
2013,08,22,15,04,24.90
2013,08,22,15,05,24.90
2013,08,22,15,06,24.90
2013,08,22,15,07,24.90
2013,08,22,15,08,25.00
2013,08,22,15,09,25.00
2013,08,22,15,10,25.00
2013,08,22,15,11,24.90
2013,08,22,15,12,24.90
2013,08,22,15,13,25.00
2013,08,22,15,14,25.10
2013,08,22,15,15,25.20
2013,08,22,15,16,25.40
2013,08,22,15,17,25.50
2013,08,22,15,18,25.60
2013,08,22,15,19,25.60
2013,08,22,15,20,25.60
2013,08,22,15,21,25.50
2013,08,22,15,22,25.50
2013,08,22,15,23,25.50
2013,08,22,15,24,25.50
2013,08,22,15,25,25.40
2013,08,22,15,26,25.40
2013,08,22,15,27,25.40
2013,08,22,15,28,25.40
2013,08,22,15,29,25.40
2013,08,22,15,30,25.50
2013,08,22,15,31,25.50
2013,08,22,15,32,25.60
2013,08,22,15,33,25.70
2013,08,22,15,34,25.70
2013,08,22,15,35,25.80
2013,08,22,15,36,25.90
2013,08,22,15,37,25.80
2013,08,22,15,38,25.80
2013,08,22,15,39,25.80
2013,08,22,15,40,25.80
2013,08,22,15,41,25.90
2013,08,22,15,42,25.90
2013,08,22,15,43,26.00
2013,08,22,15,44,26.10
2013,08,22,15,45,26.10
2013,08,22,15,46,26.00
2013,08,22,15,47,25.90
2013,08,22,15,48,25.80
2013,08,22,15,49,25.60
2013,08,22,15,50,25.50
2013,08,22,15,51,25.40
2013,08,22,15,52,25.40
2013,08,22,15,53,25.40
2013,08,22,15,54,25.30
2013,08,22,15,55,25.30
2013,08,22,15,56,25.30
2013,08,22,15,57,25.40
2013,08,22,15,58,25.50
2013,08,22,15,59,25.60
2013,08,22,16,00,25.70
2013,08,22,16,01,25.70
2013,08,22,16,02,25.80
2013,08,22,16,03,25.80
2013,08,22,16,04,25.90
2013,08,22,16,05,25.90
2013,08,22,16,06,25.90
2013,08,22,16,07,25.90
2013,08,22,16,08,25.90
2013,08,22,16,09,25.90
2013,08,22,16,10,25.90
2013,08,22,16,11,25.80
2013,08,22,16,12,25.70
2013,08,22,16,13,25.70
2013,08,22,16,14,25.60
2013,08,22,16,15,25.70
2013,08,22,16,16,25.70
2013,08,22,16,17,25.70
2013,08,22,16,18,25.70
2013,08,22,16,19,25.60
2013,08,22,16,20,25.60
2013,08,22,16,21,25.60
2013,08,22,16,22,25.60
2013,08,22,16,23,25.70
2013,08,22,16,24,25.70
2013,08,22,16,25,25.70
2013,08,22,16,26,25.70
2013,08,22,16,27,25.70
2013,08,22,16,28,25.70
2013,08,22,16,29,25.80
2013,08,22,16,30,25.80
2013,08,22,16,31,25.80
2013,08,22,16,32,25.80
2013,08,22,16,33,25.80
2013,08,22,16,34,25.80
2013,08,22,16,35,25.80
2013,08,22,16,36,25.80
2013,08,22,16,37,25.80
2013,08,22,16,38,25.80
2013,08,22,16,39,25.80
2013,08,22,16,40,25.80
2013,08,22,16,41,25.80
2013,08,22,16,42,25.80
2013,08,22,16,43,25.90
2013,08,22,16,44,25.90
2013,08,22,16,45,25.90
2013,08,22,16,46,25.90
2013,08,22,16,47,25.90
2013,08,22,16,48,25.90
2013,08,22,16,49,25.90
2013,08,22,16,50,25.90
2013,08,22,16,51,25.90
2013,08,22,16,52,26.00
2013,08,22,16,53,26.00
2013,08,22,16,54,25.90
2013,08,22,16,55,25.90
2013,08,22,16,56,25.90
2013,08,22,16,57,25.90
2013,08,22,16,58,25.90
2013,08,22,16,59,25.90
2013,08,22,17,00,25.90
2013,08,22,17,01,25.90
2013,08,22,17,02,25.90
2013,08,22,17,03,26.00
2013,08,22,17,04,26.10
2013,08,22,17,05,26.00
2013,08,22,17,06,26.00
2013,08,22,17,07,26.00
2013,08,22,17,08,26.00
2013,08,22,17,09,26.00
2013,08,22,17,10,26.00
2013,08,22,17,11,26.00
2013,08,22,17,12,26.10
2013,08,22,17,13,26.10
2013,08,22,17,14,26.20
2013,08,22,17,15,26.20
2013,08,22,17,16,26.20
2013,08,22,17,17,26.10
2013,08,22,17,18,26.10
2013,08,22,17,19,26.00
2013,08,22,17,20,26.00
2013,08,22,17,21,25.90